KJ4AJP Weather Reports


time (UTC)temp
C
wind
direction
speed
KPH
gust
KPH
rain 1hr
cm
rain 24hr
cm
rain mn
cm
humidity
%
barometer
mb
20201025133515 10 352 1.6 6.4 0.00 0.03 0.00 90 1013.9
20201025132612 10 31 1.6 4.8 0.00 0.03 0.00 89 1013.7
20201025131712 10 40 0.0 3.2 0.00 0.03 0.00 89 1013.5
20201025130813 10 39 0.0 3.2 0.00 0.03 0.00 89 1013.7
20201025125913 10 36 1.6 8.0 0.00 0.03 0.00 90 1013.6
20201025125013 10 10 3.2 8.0 0.00 0.03 0.00 89 1013.3
20201025124112 10 356 3.2 8.0 0.00 0.03 0.00 89 1013.6
20201025123214 10 24 0.0 4.8 0.00 0.03 0.00 90 1013.4
20201025122318 10 10 1.6 3.2 0.00 0.03 0.00 89 1013.4
20201025121415 10 11 1.6 3.2 0.00 0.03 0.00 89 1013.2
20201025120516 10 22 0.0 3.2 0.00 0.03 0.00 89 1013.1
20201025115613 10 18 0.0 4.8 0.00 0.03 0.00 90 1013.2
20201025114716 10 21 1.6 3.2 0.00 0.03 0.00 89 1013.0
20201025113814 10 357 0.0 4.8 0.00 0.03 0.00 90 1013.0
20201025112912 10 2 1.6 4.8 0.00 0.03 0.00 89 1013.0
20201025112019 10 9 1.6 6.4 0.00 0.03 0.00 89 1013.1
20201025111114 10 352 1.6 3.2 0.00 0.03 0.00 89 1013.1
20201025110214 10 6 0.0 6.4 0.00 0.03 0.00 89 1012.7
20201025105312 10 355 1.6 6.4 0.00 0.03 0.00 89 1012.9
20201025104413 10 354 3.2 6.4 0.00 0.03 0.00 90 1012.8
20201025103514 10 3 1.6 6.4 0.00 0.03 0.00 90 1012.6
20201025102612 10 358 1.6 4.8 0.00 0.03 0.00 90 1012.8
20201025101720 10 347 0.0 8.0 0.00 0.03 0.00 90 1012.7
20201025100812 10 103 1.6 4.8 0.00 0.03 0.00 90 1012.6
20201025095913 10 18 1.6 6.4 0.00 0.03 0.00 90 1012.5
20201025095026 10 4 1.6 6.4 0.00 0.03 0.00 90 1012.6
20201025094111 10 11 3.2 8.0 0.00 0.03 0.00 90 1012.7
20201025093212 10 348 1.6 6.4 0.00 0.03 0.00 90 1012.7
20201025092315 10 346 3.2 6.4 0.00 0.03 0.00 90 1012.7
20201025091413 10 323 1.6 4.8 0.00 0.03 0.00 90 1012.6
20201025090511 10 325 0.0 6.4 0.00 0.03 0.00 90 1012.6
20201025085613 10 348 1.6 4.8 0.00 0.03 0.00 90 1012.6
20201025084713 10 348 0.0 4.8 0.00 0.03 0.00 90 1012.6
20201025083812 10 3 0.0 6.4 0.00 0.03 0.00 90 1012.5
20201025082912 10 349 1.6 3.2 0.00 0.03 0.00 90 1012.4
20201025082018 10 27 0.0 4.8 0.00 0.03 0.00 90 1012.5
20201025081112 10 1 0.0 3.2 0.00 0.03 0.00 90 1012.4
20201025080219 10 18 0.0 4.8 0.00 0.03 0.00 90 1012.5
20201025075312 10 351 0.0 4.8 0.00 0.03 0.00 90 1012.6
20201025074421 10 4 0.0 6.4 0.00 0.03 0.00 90 1012.4
20201025073513 10 7 1.6 8.0 0.00 0.03 0.00 90 1012.5
20201025072619 10 8 1.6 4.8 0.00 0.03 0.00 90 1012.6
20201025071713 10 13 0.0 3.2 0.00 0.03 0.00 90 1012.6
20201025070812 10 333 0.0 6.4 0.00 0.03 0.00 90 1012.9
20201025065912 10 5 3.2 6.4 0.00 0.03 0.00 90 1012.8
20201025065013 10 356 1.6 6.4 0.00 0.03 0.00 90 1012.8
20201025064115 10 350 1.6 3.2 0.00 0.03 0.00 90 1012.8
20201025063216 9 8 0.0 4.8 0.00 0.03 0.00 90 1012.6
20201025062312 9 13 1.6 3.2 0.00 0.03 0.00 90 1012.6
20201025061413 9 359 0.0 4.8 0.00 0.03 0.00 90 1013.0
20201025060518 9 3 3.2 6.4 0.00 0.03 0.00 90 1012.8
20201025055615 9 2 1.6 4.8 0.00 0.03 0.00 90 1012.9
20201025054712 9 27 0.0 11.3 0.00 0.03 0.00 90 1012.9
20201025053812 9 44 1.6 6.4 0.00 0.03 0.00 90 1013.2
20201025052912 9 357 1.6 6.4 0.00 0.03 0.00 90 1013.2
20201025052016 9 8 1.6 8.0 0.00 0.03 0.00 90 1013.6
20201025051118 9 82 1.6 6.4 0.00 0.03 0.00 90 1013.4
20201025050218 9 30 3.2 6.4 0.00 0.03 0.00 90 1013.3
20201025045315 9 6 0.0 4.8 0.00 0.03 0.03 90 1013.6
20201025044413 9 11 1.6 6.4 0.00 0.03 0.03 90 1013.7
20201025043513 9 24 1.6 6.4 0.00 0.03 0.03 90 1013.7
20201025042613 9 26 1.6 4.8 0.00 0.03 0.03 90 1013.7
20201025041712 9 359 3.2 6.4 0.00 0.03 0.03 90 1014.0
20201025040812 9 1 0.0 4.8 0.00 0.03 0.03 90 1014.0
20201025035913 9 358 0.0 4.8 0.00 0.03 0.03 90 1014.1
20201025035021 9 358 1.6 4.8 0.00 0.03 0.03 90 1014.4
20201025034114 9 3 0.0 6.4 0.00 0.03 0.03 90 1014.2
20201025033212 9 354 3.2 11.3 0.00 0.03 0.03 90 1014.2
20201025032319 9 1 1.6 6.4 0.00 0.03 0.03 90 1014.2
20201025031412 9 15 3.2 6.4 0.00 0.03 0.03 90 1014.1
20201025030513 9 33 3.2 9.7 0.00 0.03 0.03 90 1014.3
20201025025612 9 17 3.2 8.0 0.00 0.03 0.03 90 1014.2
20201025024720 9 11 1.6 11.3 0.00 0.03 0.03 90 1014.3
20201025023813 9 11 3.2 6.4 0.00 0.03 0.03 90 1014.1
20201025022912 8 23 3.2 11.3 0.00 0.03 0.03 90 1014.0
20201025022031 8 51 3.2 11.3 0.00 0.03 0.03 90 1014.0
20201025021116 8 333 1.6 8.0 0.00 0.03 0.03 90 1014.3
20201025020217 8 15 1.6 8.0 0.00 0.03 0.03 90 1014.2
20201025015313 8 11 1.6 6.4 0.00 0.03 0.03 90 1014.0
20201025014412 8 351 3.2 11.3 0.00 0.03 0.03 90 1014.3
20201025013511 9 28 1.6 11.3 0.00 0.03 0.03 90 1014.1
20201025012615 9 27 3.2 9.7 0.00 0.03 0.03 90 1014.1
20201025011712 9 26 3.2 12.9 0.00 0.03 0.03 90 1014.1
20201025010812 9 324 3.2 8.0 0.00 0.03 0.03 90 1014.1
20201025005913 9 24 3.2 12.9 0.00 0.03 0.03 90 1014.1
20201025005014 9 24 1.6 12.9 0.00 0.03 0.03 90 1014.1
20201025004115 8 358 4.8 12.9 0.00 0.03 0.03 91 1014.5
20201025003212 8 4 3.2 11.3 0.00 0.03 0.03 91 1014.1
20201025002319 8 358 3.2 14.5 0.00 0.03 0.03 90 1014.3
20201025001412 9 32 6.4 14.5 0.00 0.03 0.03 90 1014.2
20201025000515 8 18 3.2 9.7 0.00 0.03 0.03 90 1014.3
20201024235613 8 11 3.2 11.3 0.00 0.03 0.03 90 1014.2
20201024234711 8 2 1.6 11.3 0.00 0.03 0.03 90 1014.1
20201024233813 8 30 0.0 6.4 0.00 0.03 0.03 90 1014.3
20201024232913 8 17 1.6 9.7 0.00 0.03 0.03 90 1014.1
20201024232018 8 13 3.2 8.0 0.00 0.03 0.03 90 1014.0
20201024231113 8 342 3.2 8.0 0.00 0.03 0.03 90 1014.3
20201024230211 8 9 1.6 6.4 0.00 0.03 0.03 90 1014.0
20201024225319 8 357 1.6 8.0 0.00 0.03 0.03 90 1014.1
20201024224417 8 22 1.6 11.3 0.00 0.03 0.03 90 1014.0
20201024223524 8 359 3.2 16.1 0.00 0.03 0.03 90 1014.1
20201024222611 8 359 3.2 11.3 0.00 0.03 0.03 90 1014.1
20201024221711 8 20 3.2 11.3 0.00 0.03 0.03 90 1014.1
20201024220812 8 35 6.4 11.3 0.00 0.03 0.03 90 1014.0
20201024215918 8 349 3.2 14.5 0.00 0.03 0.03 90 1014.0
20201024215013 9 17 3.2 12.9 0.03 0.03 0.03 90 1014.3
20201024214111 9 15 3.2 9.7 0.03 0.03 0.03 90 1014.0
20201024213211 9 18 1.6 8.0 0.03 0.03 0.03 90 1014.4
20201024212313 9 18 1.6 9.7 0.03 0.03 0.03 90 1014.0
20201024211411 9 11 1.6 9.7 0.03 0.03 0.03 89 1014.1
20201024210511 9 56 3.2 8.0 0.03 0.03 0.03 89 1014.2
20201024205611 9 2 3.2 6.4 0.03 0.03 0.03 89 1014.3
20201024204718 9 2 3.2 12.9 0.00 0.00 0.00 89 1014.3
20201024203813 9 347 3.2 12.9 0.00 0.00 0.00 89 1014.1
20201024202912 9 10 3.2 12.9 0.00 0.00 0.00 89 1014.1
20201024202023 8 27 3.2 12.9 0.00 0.00 0.00 89 1014.4
20201024201111 8 7 3.2 6.4 0.00 0.00 0.00 89 1014.2
20201024200213 9 21 3.2 12.9 0.00 0.00 0.00 89 1014.2
20201024195311 9 358 3.2 12.9 0.00 0.00 0.00 89 1014.4
20201024194414 9 6 3.2 14.5 0.00 0.00 0.00 89 1014.5
20201024193514 8 2 3.2 14.5 0.00 0.00 0.00 88 1014.8
20201024192612 9 355 3.2 14.5 0.00 0.00 0.00 88 1014.9
20201024191713 9 341 3.2 14.5 0.00 0.00 0.00 88 1014.8
20201024190812 9 1 3.2 11.3 0.00 0.00 0.00 88 1015.1
20201024185911 9 38 1.6 12.9 0.00 0.00 0.00 88 1015.0
20201024185011 9 41 3.2 12.9 0.00 0.00 0.00 88 1015.2
20201024184117 9 7 1.6 14.5 0.00 0.00 0.00 88 1015.4
20201024183224 9 357 4.8 11.3 0.00 0.00 0.00 88 1015.7
20201024182312 9 8 3.2 9.7 0.00 0.00 0.00 88 1015.5
20201024181411 8 3 3.2 9.7 0.00 0.00 0.00 88 1016.1
20201024180511 8 8 3.2 12.9 0.00 0.00 0.00 88 1015.9
20201024175611 8 21 3.2 12.9 0.00 0.00 0.00 88 1016.2
20201024174711 8 357 3.2 12.9 0.00 0.00 0.00 88 1016.4
20201024173812 8 356 4.8 11.3 0.00 0.00 0.00 88 1016.8
20201024172911 8 15 1.6 11.3 0.00 0.00 0.00 88 1016.6
20201024172012 8 3 1.6 9.7 0.00 0.05 0.00 88 1016.8
20201024171111 8 33 3.2 9.7 0.00 0.05 0.00 89 1017.0
20201024170214 8 45 3.2 12.9 0.00 0.05 0.00 88 1017.0
20201024165317 8 22 1.6 11.3 0.00 0.05 0.00 88 1017.2
20201024164411 8 6 3.2 14.5 0.00 0.05 0.00 88 1017.1
20201024163511 8 6 4.8 14.5 0.00 0.05 0.00 88 1017.1
20201024162614 8 35 3.2 11.3 0.00 0.05 0.00 88 1017.2
20201024161712 8 7 3.2 14.5 0.00 0.05 0.00 87 1017.4
20201024160816 8 212 6.4 14.5 0.00 0.05 0.00 87 1017.4
20201024155915 8 26 3.2 12.9 0.00 0.05 0.00 87 1017.6
20201024155019 8 19 3.2 19.3 0.00 0.05 0.00 86 1017.4
20201024154111 8 21 4.8 14.5 0.00 0.05 0.00 87 1017.4
20201024153212 8 42 3.2 19.3 0.00 0.05 0.00 87 1017.5
20201024152313 8 15 4.8 12.9 0.00 0.05 0.00 87 1017.4
20201024151411 8 21 6.4 17.7 0.00 0.05 0.00 88 1017.7
20201024150521 8 29 4.8 12.9 0.00 0.05 0.00 89 1017.6
20201024145613 8 11 3.2 17.7 0.00 0.05 0.00 89 1017.9
20201024144724 7 18 11.3 17.7 0.00 0.05 0.00 89 1017.8
20201024143816 7 38 6.4 17.7 0.00 0.05 0.00 89 1018.0
20201024142911 7 18 3.2 17.7 0.00 0.05 0.00 89 1018.1
20201024142025 7 9 8.0 17.7 0.00 0.05 0.00 89 1018.0
20201024141115 7 25 4.8 16.1 0.00 0.05 0.00 89 1018.2
20201024140211 7 6 4.8 12.9 0.00 0.05 0.00 89 1018.1
20201024135312 7 348 6.4 12.9 0.00 0.05 0.00 89 1017.9
20201024134414 7 14 6.4 16.1 0.00 0.05 0.00 89 1018.1